{"data":{"norad_id":51746,"intl_designator":"2022-016AJ","name":"STARLINK-3502","alt_names":[],"object_type":"PAYLOAD","status":"ACTIVE","operator":null,"country":"US","launch_date":"2022-02-21","launch_site_code":"AFETR","launch_vehicle":null,"mission":null,"orbit_class":"UNKNOWN","rcs_meters":null,"size_class":null,"mass_kg":null,"dimensions":null,"purposes":["comms"],"wikipedia_slug":null,"has_3d_model":false,"image_url":null,"decayed_at":null,"tle_current":{"epoch":"2026-09-20T04:17:36.376800Z","epoch_age_seconds":79964,"freshness":"FRESH","line1":"1 51746U 22016AJ  26263.17889325  .00000230  00000+0  19178-4 0  9990","line2":"2 51746  53.1591 143.2664 0001198  99.1850 260.9287 15.31697868253239","mean_motion":15.31697868,"eccentricity":0.0001198,"inclination_deg":53.1591,"raan_deg":143.2664,"arg_perigee_deg":99.185,"mean_anomaly_deg":260.9287,"bstar":1.9178e-5,"rev_number":25323,"period_min":94.013318819871,"perigee_km":469.92585438868,"apogee_km":471.56684683948,"semimajor_km":6848.8833506141,"source":"CELESTRAK","updated_at":"2026-09-20T09:00:39.932595Z"}}}